TimeEDT,TemperatureF,Dew PointF,Humidity,Sea Level PressureIn,VisibilityMPH,Wind Direction,Wind SpeedMPH,Gust SpeedMPH,PrecipitationIn,Events,Conditions,WindDirDegrees,DateUTC
12:15 AM,66.2,64.4,94,30.18,10.0,Calm,Calm,-,N/A,,Clear,0,2013-08-27 04:15:00
12:35 AM,66.2,64.4,94,30.18,10.0,WSW,3.5,-,N/A,,Clear,240,2013-08-27 04:35:00
12:55 AM,64.4,62.6,94,30.18,10.0,Calm,Calm,-,N/A,,Clear,0,2013-08-27 04:55:00
1:15 AM,64.4,64.4,100,30.18,10.0,SW,3.5,-,N/A,,Mostly Cloudy,230,2013-08-27 05:15:00
1:35 AM,66.2,64.4,94,30.17,10.0,SW,3.5,-,N/A,,Mostly Cloudy,230,2013-08-27 05:35:00
1:55 AM,68.0,62.6,83,30.17,10.0,Calm,Calm,-,N/A,,Mostly Cloudy,0,2013-08-27 05:55:00
2:15 AM,66.2,62.6,88,30.16,10.0,Calm,Calm,-,N/A,,Scattered Clouds,0,2013-08-27 06:15:00
2:35 AM,66.2,62.6,88,30.16,10.0,WSW,3.5,-,N/A,,Scattered Clouds,250,2013-08-27 06:35:00
2:55 AM,64.4,62.6,94,30.15,10.0,West,3.5,-,N/A,,Clear,260,2013-08-27 06:55:00
3:15 AM,64.4,62.6,94,30.15,10.0,West,3.5,-,N/A,,Clear,270,2013-08-27 07:15:00
3:35 AM,64.4,60.8,88,30.15,10.0,West,4.6,-,N/A,,Clear,270,2013-08-27 07:35:00
3:55 AM,64.4,60.8,88,30.14,10.0,Calm,Calm,-,N/A,,Clear,0,2013-08-27 07:55:00
4:15 AM,64.4,62.6,94,30.14,10.0,WSW,3.5,-,N/A,,Clear,250,2013-08-27 08:15:00
4:35 AM,64.4,62.6,94,30.14,10.0,Calm,Calm,-,N/A,,Clear,0,2013-08-27 08:35:00
4:55 AM,62.6,60.8,94,30.14,10.0,West,3.5,-,N/A,,Clear,270,2013-08-27 08:55:00
5:15 AM,62.6,62.6,100,30.13,10.0,WNW,3.5,-,N/A,,Clear,300,2013-08-27 09:15:00
5:35 AM,64.4,62.6,94,30.14,10.0,NW,3.5,-,N/A,,Clear,310,2013-08-27 09:35:00
5:55 AM,64.4,62.6,94,30.14,10.0,NNW,4.6,-,N/A,,Clear,330,2013-08-27 09:55:00
6:15 AM,64.4,62.6,94,30.14,10.0,Calm,Calm,-,N/A,,Clear,0,2013-08-27 10:15:00
6:35 AM,64.4,64.4,100,30.14,10.0,NNW,3.5,-,N/A,,Clear,330,2013-08-27 10:35:00
6:55 AM,64.4,64.4,100,30.14,10.0,NW,3.5,-,N/A,,Clear,320,2013-08-27 10:55:00
7:15 AM,64.4,64.4,100,30.14,10.0,NW,4.6,-,N/A,,Clear,310,2013-08-27 11:15:00
7:35 AM,66.2,64.4,94,30.14,10.0,NW,5.8,-,N/A,,Clear,310,2013-08-27 11:35:00
7:55 AM,66.2,64.4,94,30.14,10.0,NNW,3.5,-,N/A,,Clear,330,2013-08-27 11:55:00
8:15 AM,68.0,64.4,88,30.14,10.0,NW,4.6,-,N/A,,Clear,320,2013-08-27 12:15:00
8:35 AM,69.8,64.4,83,30.14,10.0,NW,4.6,-,N/A,,Clear,310,2013-08-27 12:35:00
8:55 AM,71.6,68.0,88,30.14,10.0,NW,5.8,-,N/A,,Clear,310,2013-08-27 12:55:00
9:15 AM,75.2,68.0,78,30.14,10.0,NW,6.9,-,N/A,,Clear,310,2013-08-27 13:15:00
9:35 AM,75.2,64.4,69,30.13,10.0,Calm,Calm,-,N/A,,Clear,0,2013-08-27 13:35:00
9:55 AM,77.0,62.6,61,30.13,10.0,NW,5.8,-,N/A,,Clear,310,2013-08-27 13:55:00
10:15 AM,80.6,64.4,58,30.14,10.0,WNW,3.5,-,N/A,,Clear,300,2013-08-27 14:15:00
10:35 AM,80.6,64.4,58,30.14,10.0,WSW,4.6,-,N/A,,Clear,250,2013-08-27 14:35:00
10:55 AM,80.6,64.4,58,30.13,10.0,WSW,4.6,-,N/A,,Clear,250,2013-08-27 14:55:00
11:15 AM,80.6,64.4,58,30.13,10.0,WSW,4.6,-,N/A,,Clear,250,2013-08-27 15:15:00
11:35 AM,82.4,66.2,58,30.13,10.0,WSW,3.5,-,N/A,,Clear,240,2013-08-27 15:35:00
11:55 AM,82.4,64.4,54,30.13,10.0,West,4.6,-,N/A,,Clear,260,2013-08-27 15:55:00
12:15 PM,82.4,64.4,54,30.12,10.0,West,5.8,-,N/A,,Clear,280,2013-08-27 16:15:00
12:35 PM,82.4,64.4,54,30.11,10.0,West,5.8,-,N/A,,Clear,260,2013-08-27 16:35:00
12:55 PM,84.2,64.4,51,30.11,10.0,West,4.6,-,N/A,,Clear,270,2013-08-27 16:55:00
1:15 PM,86.0,64.4,48,30.11,10.0,WNW,3.5,-,N/A,,Clear,300,2013-08-27 17:15:00
1:35 PM,86.0,64.4,48,30.11,10.0,North,3.5,-,N/A,,Clear,360,2013-08-27 17:35:00
1:55 PM,86.0,62.6,45,30.10,10.0,NW,4.6,-,N/A,,Clear,310,2013-08-27 17:55:00
2:15 PM,86.0,60.8,43,30.09,10.0,Calm,Calm,-,N/A,,Clear,0,2013-08-27 18:15:00
2:35 PM,86.0,62.6,45,30.08,10.0,NNW,4.6,-,N/A,,Scattered Clouds,330,2013-08-27 18:35:00
2:55 PM,86.0,62.6,45,30.08,10.0,Calm,Calm,-,N/A,,Scattered Clouds,0,2013-08-27 18:55:00
3:15 PM,86.0,62.6,45,30.07,10.0,Calm,Calm,-,N/A,,Scattered Clouds,0,2013-08-27 19:15:00
3:35 PM,86.0,62.6,45,30.07,10.0,Calm,Calm,-,N/A,,Scattered Clouds,0,2013-08-27 19:35:00
3:55 PM,86.0,62.6,45,30.06,10.0,NNW,3.5,-,N/A,,Scattered Clouds,340,2013-08-27 19:55:00
4:15 PM,86.0,64.4,48,30.05,10.0,Calm,Calm,-,N/A,,Clear,0,2013-08-27 20:15:00
4:35 PM,87.8,62.6,43,30.06,10.0,Calm,Calm,-,N/A,,Clear,0,2013-08-27 20:35:00
4:55 PM,86.0,62.6,45,30.05,10.0,Calm,Calm,-,N/A,,Clear,0,2013-08-27 20:55:00
5:15 PM,87.8,59.0,38,30.05,10.0,Calm,Calm,-,N/A,,Clear,0,2013-08-27 21:15:00
5:35 PM,86.0,60.8,43,30.05,10.0,NW,3.5,-,N/A,,Clear,310,2013-08-27 21:35:00
5:55 PM,86.0,62.6,45,30.05,10.0,NW,3.5,-,N/A,,Clear,320,2013-08-27 21:55:00
6:15 PM,86.0,66.2,51,30.05,10.0,Calm,Calm,-,N/A,,Clear,0,2013-08-27 22:15:00
6:35 PM,84.2,69.8,62,30.05,10.0,Calm,Calm,-,N/A,,Clear,0,2013-08-27 22:35:00
6:55 PM,82.4,68.0,62,30.05,10.0,Calm,Calm,-,N/A,,Clear,0,2013-08-27 22:55:00
7:15 PM,82.4,73.4,74,30.05,10.0,Calm,Calm,-,N/A,,Clear,0,2013-08-27 23:15:00
7:35 PM,80.6,73.4,79,30.05,10.0,Calm,Calm,-,N/A,,Clear,0,2013-08-27 23:35:00
7:55 PM,80.6,77.0,89,30.05,10.0,Calm,Calm,-,N/A,,Clear,0,2013-08-27 23:55:00
8:15 PM,78.8,77.0,94,30.05,10.0,Calm,Calm,-,N/A,,Clear,0,2013-08-28 00:15:00
8:35 PM,77.0,77.0,100,30.05,10.0,Calm,Calm,-,N/A,,Clear,0,2013-08-28 00:35:00
8:55 PM,75.2,75.2,100,30.05,7.0,Calm,Calm,-,N/A,,Clear,0,2013-08-28 00:55:00
9:15 PM,75.2,75.2,100,30.05,7.0,Calm,Calm,-,N/A,,Clear,0,2013-08-28 01:15:00
9:35 PM,75.2,73.4,94,30.06,10.0,Calm,Calm,-,N/A,,Clear,0,2013-08-28 01:35:00
9:55 PM,75.2,73.4,94,30.06,10.0,Calm,Calm,-,N/A,,Clear,0,2013-08-28 01:55:00
10:15 PM,75.2,73.4,94,30.07,10.0,Calm,Calm,-,N/A,,Clear,0,2013-08-28 02:15:00
10:35 PM,75.2,73.4,94,30.07,10.0,Calm,Calm,-,N/A,,Clear,0,2013-08-28 02:35:00
10:55 PM,73.4,73.4,100,30.07,10.0,WSW,3.5,-,N/A,,Clear,250,2013-08-28 02:55:00
11:15 PM,73.4,71.6,94,30.07,10.0,Calm,Calm,-,N/A,,Clear,0,2013-08-28 03:15:00
11:35 PM,73.4,71.6,94,30.07,10.0,WSW,3.5,-,N/A,,Clear,250,2013-08-28 03:35:00
11:55 PM,73.4,71.6,94,30.07,10.0,Calm,Calm,-,N/A,,Clear,0,2013-08-28 03:55:00